Regional Weather Roundup
Issued by NWS Sterling, VA

Home | Current Version | Previous Version | Text Only | Print | Product List | Glossary Off
Versions: 1 2 3 4 5 6 7 8 9 10 11 12 13 14 15 16 17 18 19 20 21 22 23 24 25 26 27

000
ASUS41 KLWX 201610
RWRLWX

REGIONAL WEATHER ROUNDUP
NATIONAL WEATHER SERVICE BALTIMORE MD/WASHINGTON DC
1200 PM EDT SUN APR 20 2014

Note: "FAIR" indicates few or no clouds below 12,000 feet
with no significant weather and/or obstructions to visibility.
 TC=TEMPERATURE CELSIUS

 * =Non NWS site. Station does not report precipitation (e.g. rain,
    snow, etc.), thunder, or fog.

DCZ001-MDZ009-015-VAZ040>042-051-053>054-201700-
WASHINGTON METRO

CITY           SKY/WX    TMP DP  RH WIND       PRES   REMARKS
WASHINGTON NAT PTSUNNY   60  38  43 E12G18    30.44S
DULLES         PTSUNNY   55  35  47 E7G17     30.43S
ANDREWS AFB    PTSUNNY   57  36  44 E13G21    30.42F
FT BELVOIR     PTSUNNY   59  38  44 NE8       30.43F
QUANTICO       PTSUNNY   60  39  45 NE14      30.42S
COLLEGE PARK*  PTSUNNY   57  37  47 E6        30.43F
LEESBURG*      MOSUNNY   59  37  44 E6G16     30.44S
MANASSAS*      SUNNY     61  37  41 E6        30.43R
GAITHERSBURG*  SUNNY     54  34  47 E8        30.46F

$$

MDZ006>007-011-014-201700-
BALTIMORE METRO

CITY           SKY/WX    TMP DP  RH WIND       PRES   REMARKS
BWI AIRPORT    PTSUNNY   53  34  48 E14       30.45S
MD SCIENCE CTR   N/A     55  34  45 MISG      30.47S
MARTIN STATE   PTSUNNY   55  36  47 E8        30.48S
ANNAPOLIS      PTSUNNY   54  35  48 E15       30.44F
FORT MEADE*    PTSUNNY   55  32  41 E12G17    30.47S

$$

MDZ012-015-019>023-201700-
MARYLAND EASTERN SHORE

CITY           SKY/WX    TMP DP  RH WIND       PRES   REMARKS
OCEAN CITY     MOSUNNY   53  41  63 NE15G25   30.40F
SALISBURY      SUNNY     58  39  49 E21G29    30.40F
BAY BRIDGE AP* PTSUNNY   57  32  38 E13       30.44F
CAMBRIDGE*     PTSUNNY   59  34  38 NE10G23   30.40F
EASTON*        PTSUNNY   59  37  44 E12G23    30.47S

$$

MDZ017>025-201700-
SOUTHERN MARYLAND

CITY           SKY/WX    TMP DP  RH WIND       PRES   REMARKS
PATUXENT RIVER PTSUNNY   60  35  39 NE17      30.40F
ST INIGOES     SUNNY     60  39  45 NE14G21   30.39F
LEONARDTOWN*   SUNNY     59  34  38 NE9G17    30.41F

$$

MDZ003>005-201700-
NORTH CENTRAL MARYLAND

CITY           SKY/WX    TMP DP  RH WIND       PRES   REMARKS
FREDERICK*     SUNNY     61  41  48 E7        30.46
HAGERSTOWN APT SUNNY     59  31  34 SE8       30.41F
WESTMINSTER*   SUNNY     57  34  41 SE8       30.43S

$$

MDZ501>502-201700-
WESTERN MARYLAND

CITY           SKY/WX    TMP DP  RH WIND       PRES   REMARKS
OAKLAND*       SUNNY     54  12  19 SE18G24   30.35S
CUMBERLAND*    SUNNY     61  28  29 E7        30.42F

$$

VAZ025>031-201700-
SHENANDOAH VALLEY

CITY           SKY/WX    TMP DP  RH WIND       PRES   REMARKS
WINCHESTER*    SUNNY     59  32  36 SE10      30.42S
STAUNTON*      MOSUNNY   57  29  33 N8        30.40F

$$

WVZ021-048>050-054>055-201700-
EASTERN WEST VIRGINIA PANHANDLE

CITY           SKY/WX    TMP DP  RH WIND       PRES   REMARKS
MARTINSBURG    SUNNY     59  29  31 SE9       30.42F
PETERSBURG*    SUNNY     64  36  35 CALM      30.38F

$$

VAZ036>039-050-201700-
CENTRAL FOOTHILLS

CITY           SKY/WX    TMP DP  RH WIND       PRES   REMARKS
CHARLOTTESVILL MOSUNNY   60  32  34 NE9G17    30.38F
CULPEPER*      PTSUNNY   63  32  31 N8        30.42S

$$

VAZ055>057-201700-
NORTH AND CENTRAL PIEDMONT

CITY           SKY/WX    TMP DP  RH WIND       PRES   REMARKS
FREDERICKSBRG* MOSUNNY   63  37  39 NE9G16    30.39F
STAFFORD*      MOSUNNY   62  40  43 NE12      30.44F

$$

NCZ024-NYZ072-PAZ021-071-VAZ022-071-201700-
OTHER REGIONAL OBSERVATIONS

CITY           SKY/WX    TMP DP  RH WIND       PRES   REMARKS
NEW YORK CITY  SUNNY     56  25  30 VRB3      30.51F
PHILADELPHIA   PTSUNNY   55  29  36 E13       30.49R
PITTSBURGH     PTSUNNY   61  25  25 SE13      30.32F
ROANOKE        MOSUNNY   62  32  32 NE6       30.36S
RICHMOND       PTSUNNY   64  36  35 E15G26    30.35S
RALEIGH        PTSUNNY   62  42  47 NE17G29   30.26F

$$

ANZ530>537-201700-
MARINE OBSERVATIONS

STATION/POSITION TIME  TEMP    WIND        PRES
                       AIR SEA DIR/SP/G
                 (UTC) (F)     (DEG/KT/KT) (MB)
THOMAS PT LIGHT  1600   54 53   70/ 13/ 14 1031.2F
BALT KEY BRIDGE  1600   51      60/  9/ 11 1031.5S
COVE POINT       1600   55      80/ 13/ 16 1029.7S
LEWISETTA        1600   56 54   50/ 10/ 16 1028.8S
SOLOMONS ISLAND  1600      53                N/A
PINEY POINT      1600           70/ 12/ 16   N/A

$$




USA.gov is the U.S. government's official web portal to all federal, state and local government web resources and services.